Bennington, VT

12:29 AM EST on December 14, 2019 (GMT -0500)
Morse State

Weather History for KDDH - September, 2019

Change the Weather History Date:

Friday, September 27, 2019

  Actual Average Record
Temperature  
Mean Temperature 55 °F 55 °F  
Max Temperature 68 °F 66 °F 88 °F (2017)
Min Temperature 42 °F 43 °F 30 °F (2000)
Degree Days  
Heating Degree Days 10 11  
Month to date heating degree days 165 171  
Since 1 July heating degree days 200 243  
Cooling Degree Days 0 0  
Month to date cooling degree days 21 22  
Year to date cooling degree days 372 310  
Growing Degree Days 6 (Base 50)    
Moisture  
Dew Point 46 °F    
Average Humidity 73    
Maximum Humidity 100    
Minimum Humidity 45    
Precipitation  
Precipitation 0.00 in 0.13 in 0.57 in (2002)
Month to date precipitation 2.26 3.16  
Year to date precipitation 29.73 30.70  
Sea Level Pressure  
Sea Level Pressure 30.06 in    
Wind  
Wind Speed 2 mph (South)    
Max Wind Speed 10 mph    
Max Gust Speed 15 mph    
Visibility 4 miles    
Events Fog    
T = Trace of Precipitation, MM = Missing Value Source: NWS Daily Summary

Daily Weather History Graph

Daily Weather History Graph

Search for Another Location

Airport or City:

Astronomy

Sep. 27, 2019 Rise Set
Actual Time 6:45 AM EDT 6:41 PM EDT
Civil Twilight 6:17 AM EDT 7:09 PM EDT
Nautical Twilight 5:44 AM EDT 7:42 PM EDT
Astronomical Twilight 5:10 AM EDT 8:16 PM EDT
Moon 4:59 AM EDT (9/27) 6:33 PM EDT (9/27)
Length of Visible Light 12h 52m
Length of Day
11h 56m
Waning Crescent, 2% of the Moon is Illuminated
Sep 27
Waning Crescent
Sep 28
New
Oct 5
First Quarter
Oct 13
Full
Oct 21
Last Quarter

Hourly Weather History & Observations

Time (EDT) Temp. Windchill Dew Point Humidity Pressure Visibility Wind Dir Wind Speed Gust Speed Precip Events Conditions
12:04 AM 48.9 °F - 48.9 °F 100% 29.93 in 1.0 mi Calm Calm - N/A   Mostly Cloudy
12:16 AM 50.0 °F - 48.0 °F 93% 29.94 in 3.0 mi Calm Calm - N/A   Scattered Clouds
12:54 AM 53.1 °F - 51.1 °F 93% 29.95 in 10.0 mi WSW 8.1 mph - N/A   Clear
1:54 AM 48.0 °F - 46.0 °F 93% 29.98 in 2.5 mi Calm Calm - N/A   Partly Cloudy
2:01 AM 48.9 °F - 48.0 °F 97% 29.98 in 1.0 mi Calm Calm - N/A   Mist
2:09 AM 46.9 °F - 46.0 °F 97% 29.98 in 0.8 mi Calm Calm - N/A   Mist
2:14 AM 46.9 °F - 46.0 °F 97% 29.98 in 1.2 mi Calm Calm - N/A   Partly Cloudy
2:29 AM 46.0 °F 44.8 °F 45.0 °F 96% 29.99 in 0.8 mi South 3.5 mph - N/A   Mist
2:54 AM 46.9 °F - 46.0 °F 97% 30.01 in 0.8 mi South 3.5 mph - N/A   Mist
3:19 AM 45.0 °F 43.5 °F 44.1 °F 97% 30.01 in 1.0 mi SSE 3.5 mph - N/A   Mostly Cloudy
3:31 AM 46.0 °F 44.8 °F 44.1 °F 93% 30.01 in 0.8 mi SSE 3.5 mph - N/A   Overcast
3:41 AM 46.0 °F 44.8 °F 45.0 °F 96% 30.02 in 1.8 mi South 3.5 mph - N/A   Mostly Cloudy
3:54 AM 46.0 °F 44.8 °F 43.0 °F 89% 30.03 in 1.5 mi South 3.5 mph - N/A   Mostly Cloudy
3:58 AM 46.0 °F 44.8 °F 43.0 °F 89% 30.02 in 3.0 mi South 3.5 mph - N/A   Scattered Clouds
4:15 AM 46.0 °F - 45.0 °F 96% 30.02 in 1.8 mi Calm Calm - N/A   Partly Cloudy
4:24 AM 46.0 °F - 45.0 °F 96% 30.03 in 3.0 mi Calm Calm - N/A   Clear
4:29 AM 45.0 °F - 44.1 °F 97% 30.03 in 1.8 mi Calm Calm - N/A   Clear
4:36 AM 45.0 °F - 43.0 °F 93% 30.03 in 0.8 mi Calm Calm - N/A   Mist
4:42 AM 43.0 °F 41.3 °F 42.1 °F 97% 30.03 in 1.2 mi SE 3.5 mph - N/A   Partly Cloudy
4:54 AM 44.1 °F 42.5 °F 42.1 °F 93% 30.04 in 1.0 mi SSE 3.5 mph - N/A   Mist
5:00 AM 43.0 °F - 42.1 °F 97% 30.03 in 2.0 mi Calm Calm - N/A   Scattered Clouds
5:04 AM 44.1 °F - 42.1 °F 93% 30.03 in 1.0 mi Calm Calm - N/A   Mist
5:24 AM 44.1 °F - 42.1 °F 93% 30.04 in 0.2 mi Calm Calm - N/A Fog Fog
5:36 AM 44.1 °F - 42.1 °F 93% 30.04 in 0.5 mi Calm Calm - N/A Fog Fog
5:54 AM 44.1 °F - 43.0 °F 96% 30.06 in 0.5 mi Calm Calm - N/A Fog Fog
6:26 AM 43.0 °F 41.3 °F 42.1 °F 97% 30.06 in 1.2 mi South 3.5 mph - N/A   Scattered Clouds
6:30 AM 43.0 °F 40.3 °F 42.1 °F 97% 30.06 in 3.0 mi South 4.6 mph - N/A   Scattered Clouds
6:54 AM 43.0 °F - 42.1 °F 97% 30.09 in 6.0 mi Calm Calm - N/A   Clear
7:09 AM 43.0 °F - 42.1 °F 97% 30.08 in 1.8 mi Calm Calm - N/A   Clear
7:15 AM 44.1 °F - 42.1 °F 93% 30.09 in 0.8 mi Calm Calm - N/A   Mist
7:19 AM 44.1 °F - 42.1 °F 93% 30.09 in 1.2 mi Calm Calm - N/A   Scattered Clouds
7:27 AM 44.1 °F - 43.0 °F 96% 30.09 in 1.0 mi Calm Calm - N/A   Mostly Cloudy
7:36 AM 46.0 °F - 44.1 °F 93% 30.09 in 3.0 mi Calm Calm - N/A   Overcast
7:49 AM 46.4 °F 45.2 °F 46.4 °F 100% 30.09 in 1.2 mi SE 3.5 mph - N/A   Overcast
7:54 AM 48.0 °F - 46.0 °F 93% 30.10 in 0.2 mi Calm Calm - N/A Fog Fog
8:07 AM 48.9 °F - 48.0 °F 97% 30.10 in 0.5 mi Calm Calm - N/A Fog Fog
8:20 AM 50.0 °F - 48.9 °F 96% 30.10 in 2.0 mi Calm Calm - N/A   Overcast
8:29 AM 51.1 °F - 50.0 °F 96% 30.10 in 6.0 mi Calm Calm - N/A   Mostly Cloudy
8:38 AM 51.1 °F - 50.0 °F 96% 30.10 in 10.0 mi Calm Calm - N/A   Scattered Clouds
8:54 AM 53.1 °F - 51.1 °F 93% 30.12 in 10.0 mi Calm Calm - N/A   Clear
9:24 AM 54.0 °F - 50.0 °F 86% 30.12 in 10.0 mi North 5.8 mph - N/A   Partly Cloudy
9:54 AM 57.0 °F - 51.1 °F 81% 30.12 in 10.0 mi Calm Calm - N/A   Clear
10:54 AM 61.0 °F - 52.0 °F 72% 30.13 in 10.0 mi Calm Calm - N/A   Clear
11:54 AM 63.0 °F - 51.1 °F 65% 30.14 in 10.0 mi SSW 6.9 mph - N/A   Scattered Clouds
12:54 PM 64.0 °F - 48.0 °F 56% 30.13 in 10.0 mi WSW 5.8 mph - N/A   Clear
1:54 PM 64.9 °F - 46.0 °F 50% 30.11 in 10.0 mi Variable 3.5 mph - N/A   Clear
2:54 PM 66.0 °F - 48.9 °F 54% 30.09 in 10.0 mi South 9.2 mph - N/A   Clear
3:54 PM 68.0 °F - 46.0 °F 45% 30.08 in 10.0 mi Calm Calm - N/A   Clear
4:54 PM 66.9 °F - 48.0 °F 51% 30.08 in 10.0 mi Calm Calm - N/A   Clear
5:54 PM 64.9 °F - 54.0 °F 68% 30.09 in 10.0 mi Calm Calm - N/A   Clear
6:54 PM 55.9 °F - 52.0 °F 87% 30.09 in 10.0 mi Calm Calm - N/A   Clear
7:54 PM 54.0 °F - 50.0 °F 86% 30.09 in 10.0 mi Calm Calm - N/A   Clear
8:54 PM 53.1 °F - 48.9 °F 86% 30.11 in 10.0 mi Calm Calm - N/A   Clear
9:54 PM 53.1 °F - 48.9 °F 86% 30.10 in 10.0 mi Calm Calm - N/A   Clear
10:54 PM 52.0 °F - 48.0 °F 86% 30.09 in 10.0 mi Calm Calm - N/A   Clear
11:54 PM 52.0 °F - 46.9 °F 83% 30.09 in 10.0 mi Calm Calm - N/A   Clear